#timestamp,LO_Frequency,Hit,StdDev 
1544918415.3,286046996.3,N
1544918435.1,286046993.5,Y
1544918455.9,286046995.4,P
1544918475.7,286046995.0,P
1544918495.5,286046997.4,N
1544918515.4,286046997.2,N
1544918535.2,286046997.3,N
1544918555.0,286046999.2,N
1544918555.9,286046999.2,N
1544918575.8,286046997.4,N
1544918595.6,286046997.8,N
1544918615.5,286046996.9,N
1544918665.3,286046997.5,E
1544918675.2,286046997.8,N
1544918695.1,286046999.3,P
1544918696.0,286046999.3,N
1544918715.8,286047001.1,N
1544918735.7,286047000.6,N
1544918755.5,286046998.6,N
1544918775.3,286047000.4,N
1544918795.2,286047000.0,N
1544918815.0,286047000.0,N
1544918815.9,286047000.0,N
1544918835.8,286047001.0,N
1544918855.6,286047000.8,N
1544918875.4,286047000.7,N
1544918895.3,286047000.8,N
1544918915.1,286047000.0,N
1544918935.8,286047000.0,N
1544918955.7,286047000.7,N
1544918975.5,286047000.1,N
1544918995.4,286047000.4,N
1544919015.2,286047000.9,N
1544919035.0,286047000.6,N
1544919055.4,286046998.5,N
1544919075.2,286046998.5,N
1544919095.1,286046998.3,N
1544919096.0,286046998.3,N
1544919115.8,286046999.1,N
1544919135.6,286046997.1,Y
1544919155.5,286046996.5,P
1544919175.3,286046998.2,N
1544919195.2,286046998.6,N
1544919215.9,286046999.6,N
1544919235.7,286046998.7,N
1544919255.6,286046999.5,N
1544919275.4,286046996.9,N
1544919295.2,286046999.3,N
1544919315.1,286046998.4,N
1544919316.0,286046998.4,N
1544919335.8,286046998.9,N
1544919355.7,286046996.6,Y
1544919375.5,286046998.6,P
1544919395.3,286046997.0,P
1544919415.2,286046997.0,P
1544919435.0,286046996.7,Y
1544919435.9,286046996.7,P
1544919455.8,286047011.9,P
1544919475.6,286047002.8,N
1544919495.4,286046999.9,N
1544919515.3,286047000.1,N
1544919535.1,286047002.0,N
1544919555.8,286047002.7,N
1544919575.7,286046999.7,N
1544919595.5,286046999.9,N
1544919615.4,286047000.3,N
1544919635.2,286047000.8,N
1544919655.0,286046998.7,N
1544919655.9,286046998.7,N
1544919675.8,286046998.1,N
1544919695.6,286046998.6,N
1544919715.5,286046999.1,N
1544919735.3,286046999.4,N
1544919755.1,286046999.2,N
1544919775.9,286046994.9,N
1544919795.7,286046995.6,N
1544919815.5,286046995.4,N
1544919835.4,286046997.5,N
1544919855.2,286046997.3,N
1544919875.1,286046997.3,N
1544919876.0,286046997.3,N
1544919895.8,286046997.3,N
1544919915.6,286046996.8,N
1544919935.5,286046997.9,N
1544919955.3,286046996.8,N
1544919975.1,286046998.0,N
1544919995.9,286046994.9,N
1544920015.7,286046994.9,N
1544920035.6,286046997.7,N
1544920055.4,286046997.1,N
1544920075.2,286046994.9,N
1544920095.1,286046995.0,N
1544920096.0,286046995.0,N
1544920115.8,286046995.4,N
1544920135.6,286046995.2,N
1544920155.5,286046995.5,N
1544920175.3,286046995.4,N
1544920195.2,286046995.1,Y
1544920215.9,286047001.2,P
1544920235.7,286046999.8,N
1544920255.6,286046999.8,N
1544920275.4,286047001.9,N
1544920295.2,286047000.3,N
1544920315.1,286047000.9,N
1544920316.0,286047000.9,N
1544920335.8,286047000.5,N
1544920355.7,286047000.3,N
1544920375.5,286047000.7,N
1544920395.3,286047001.1,N
1544920415.2,286047001.1,N
1544920435.0,286047001.2,N
1544920435.9,286047001.2,N
1544920455.8,286047000.1,N
1544920475.9,286046999.8,N
1544920495.7,286047000.2,N
1544920515.6,286047000.6,N
1544920535.4,286046998.1,N
1544920555.2,286047000.7,N
1544920575.1,286046999.9,N
1544920576.0,286046999.9,N
1544920595.8,286047001.9,N
1544920615.7,286047001.7,N
1544920635.5,286047001.6,N
1544920655.3,286047001.6,N
1544920675.2,286047001.4,N
1544920695.9,286047001.5,N
1544920715.7,286047001.7,N
1544920735.6,286047002.5,N
1544920755.4,286047001.9,N
1544920775.3,286047001.6,N
1544920795.1,286047004.3,Y
1544920796.0,286047004.3,P
1544920815.8,286047001.5,N
1544920835.7,286047003.1,N
1544920855.5,286047003.0,N
1544920875.4,286047001.8,N
1544920895.2,286047001.8,N
1544920915.1,286047001.9,N
1544920916.0,286047001.9,N
1544920935.8,286047004.1,Y
1544920955.6,286047000.2,P
1544920975.5,286047002.7,N
1544920995.3,286047002.6,N
1544921015.2,286047000.1,N
1544921035.9,286047002.8,N
1544921055.7,286046999.9,N
1544921075.6,286047002.3,N
1544921095.4,286047001.4,N
1544921115.2,286047002.5,N
1544921135.1,286047002.5,N
1544921136.0,286047002.5,N
1544921155.8,286047001.5,N
1544921175.7,286047004.3,Y
1544921195.5,286046999.7,P
1544921215.3,286047000.2,N
1544921235.2,286047000.3,N
1544921255.0,286047000.9,N
1544921255.9,286047000.9,N
1544921275.8,286046998.4,N
1544921295.6,286046999.4,N
1544921315.4,286046999.0,N
1544921335.3,286046999.1,N
1544921355.1,286046998.6,N
1544921375.8,286046998.2,N
1544921395.7,286047001.1,N
1544921415.5,286046999.8,N
1544921435.4,286046999.9,N
1544921455.2,286046999.7,N
1544921475.0,286047000.0,N
1544921475.9,286047000.0,N
1544921495.8,286047002.4,N
1544921515.6,286047001.5,N
1544921535.4,286047002.2,N
1544921555.3,286047002.7,N
1544921575.1,286047002.4,N
1544921595.9,286047002.6,N
1544921615.7,286047002.4,N
1544921635.5,286047002.4,N
1544921655.4,286047001.5,N
1544921675.2,286047002.0,N
1544921695.0,286046999.9,N
1544921696.0,286046999.9,N
1544921715.8,286047002.7,N
1544921735.6,286046999.8,N
1544921755.5,286047002.1,N
1544921775.3,286047001.5,N
1544921795.1,286047002.1,N
1544921815.9,286047002.0,N
1544921835.7,286047002.2,N
1544921855.8,286047004.4,Y
1544921875.7,286047001.9,P
1544921895.5,286047000.6,N
1544921915.3,286047000.5,N
1544921935.2,286047000.2,N
1544921955.0,286047002.4,Y
1544921955.9,286047002.4,P
1544921975.7,286047002.8,P
1544921995.6,286047002.5,N
